Starlink 34242

operational
NORAD ID: 64727 Int'l Des: 2025-144 Owner: SPXS Country: US Constellation: starlink
LEOCIRCULAR

About Starlink 34242

Description loading...

Live Position

Loading 3D Globe...

Upcoming Passes

Altitude History

Altitude vs Time

uPlot chart will show altitude changes over time

Two-Line Element Set

1 64727U 25144D 26102.49310604 .00014855 00000-0 51271-3 0 9992
2 64727 53.1605 24.2879 0001460 92.9238 267.1929 15.30198217 44881
Epoch: Apr 12, 2026 • Age: 8 hours

Current Status

Altitude 479.9 km
Velocity 7.63 km/s
Sub-Earth Point 49.34°N, 0.7°W
Launch Date Jul 2, 2025
Age 0.7 years
Type internet

Technical Details

Classification Payload
Mass 575.00 kg
Dry Mass 530.00 kg
Total Mass 575.00 kg
Length 0.30 m
Diameter 4.10 m
Span 29.00 m
Shape Box + pan
Manufacturer SPXS
Bus Type Starlink V2MO
Phase Status In Orbit
Owner/State SPXS/US

Large Constellations

Loading constellations...